GW1000 Weather Reports


Display with metric or nautical units.
time (UTC)temp
F
wind
direction
speed
MPH
gust
MPH
rain 1hr
in
rain 24hr
in
rain mn
in
humidity
%
barometer
mb
20260901070352 83 359 3.0 6.0 0.00 0.00 0.00 66 1007.3
20260901065850 83 293 7.0 9.0 0.00 0.00 0.00 67 1007.2
20260901065346 82 341 6.0 8.0 0.00 0.00 0.00 67 1007.1
20260901064841 83 339 7.0 9.0 0.00 0.00 0.00 68 1007.2
20260901064338 82 352 4.0 5.0 0.00 0.00 0.00 68 1007.2
20260901063835 82 321 3.0 6.0 0.00 0.00 0.00 69 1007.1
20260901063331 82 346 4.0 7.0 0.00 0.00 0.00 69 1007.1
20260901062826 83 50 3.0 3.0 0.00 0.00 0.00 69 1007.1
20260901062322 82 117 1.0 5.0 0.00 0.00 0.00 70 1007.0
20260901061818 82 117 4.0 6.0 0.00 0.00 0.00 70 1007.3
20260901061313 82 122 4.0 5.0 0.00 0.00 0.00 69 1007.1
20260901060808 83 128 0.0 1.0 0.00 0.00 0.00 70 1007.2
20260901060304 82 109 1.0 5.0 0.00 0.00 0.00 71 1007.1
20260901055758 82 50 2.0 3.0 0.00 0.00 0.00 72 1007.3
20260901055255 81 41 3.0 5.0 0.00 0.00 0.00 73 1007.2
20260901054751 82 148 1.0 2.0 0.00 0.00 0.00 73 1007.2
20260901054248 81 41 1.0 2.0 0.00 0.00 0.00 74 1006.9
20260901053743 81 45 0.0 1.0 0.00 0.00 0.00 74 1007.1
20260901053238 80 45 1.0 2.0 0.00 0.00 0.00 75 1007.1
20260901052734 80 56 1.0 3.0 0.00 0.00 0.00 76 1007.1
20260901052229 80 49 2.0 3.0 0.00 0.00 0.00 76 1007.2
20260901051728 79 23 3.0 5.0 0.00 0.00 0.00 77 1006.9
20260901051223 79 32 1.0 1.0 0.00 0.00 0.00 77 1007.0
20260901050718 78 80 1.0 2.0 0.00 0.00 0.00 79 1006.8
20260901050213 77 71 0.0 1.0 0.00 0.00 0.00 80 1007.1
20260901045708 77 66 2.0 5.0 0.00 0.00 0.00 81 1006.8
20260901045203 76 60 0.0 1.0 0.00 0.00 0.00 83 1006.8
20260901044658 75 51 0.0 1.0 0.00 0.00 0.00 83 1007.0
20260901044154 75 46 0.0 1.0 0.00 0.00 0.00 84 1006.9
20260901043650 74 39 0.0 1.0 0.00 0.00 0.00 85 1006.9
20260901043145 74 24 0.0 0.0 0.00 0.00 0.00 85 1006.7
20260901042644 73 20 0.0 1.0 0.00 0.00 0.00 85 1006.9
20260901042139 73 26 0.0 1.0 0.00 0.00 0.00 85 1006.7
20260901041635 73 73 0.0 1.0 0.00 0.00 0.00 85 1006.8
20260901041131 73 89 0.0 1.0 0.00 0.00 0.00 85 1006.5
20260901040630 73 97 0.0 0.0 0.00 0.00 0.00 86 1006.6
20260901040130 73 343 0.0 0.0 0.00 0.00 0.00 86 1006.7
20260901035628 72 21 0.0 0.0 0.00 0.00 0.00 86 1006.6
20260901035126 72 9 0.0 0.0 0.00 0.00 0.00 86 1006.6
20260901034621 72 359 0.0 0.0 0.00 0.00 0.00 86 1006.6
20260901034115 72 357 0.0 0.0 0.00 0.00 0.00 86 1006.5
20260901033615 72 36 0.0 0.0 0.00 0.00 0.00 86 1006.5
20260901033114 72 9 0.0 0.0 0.00 0.00 0.00 86 1006.5
20260901032613 72 9 0.0 0.0 0.00 0.00 0.00 85 1006.5
20260901032108 72 25 0.0 0.0 0.00 0.00 0.00 85 1006.4
20260901031604 72 31 0.0 0.0 0.00 0.00 0.00 85 1006.4
20260901031100 72 38 0.0 0.0 0.00 0.00 0.00 85 1006.3
20260901030559 72 33 0.0 1.0 0.00 0.00 0.00 85 1006.2
20260901030054 72 7 1.0 2.0 0.00 0.00 0.00 85 1006.5
20260901025548 72 38 0.0 0.0 0.00 0.00 0.00 85 1006.2
20260901025043 73 350 1.0 1.0 0.00 0.00 0.00 85 1006.2
20260901024538 73 25 0.0 1.0 0.00 0.00 0.00 85 1006.0
20260901024037 73 30 0.0 0.0 0.00 0.00 0.00 85 1006.3
20260901023536 73 38 0.0 1.0 0.00 0.00 0.00 85 1006.1
20260901023031 73 39 0.0 0.0 0.00 0.00 0.00 85 1006.4
20260901022526 73 39 0.0 0.0 0.00 0.00 0.00 84 1006.3
20260901022021 73 125 1.0 2.0 0.00 0.00 0.00 84 1006.3
20260901021517 73 72 1.0 1.0 0.00 0.00 0.00 84 1006.3
20260901021012 73 38 0.0 1.0 0.00 0.00 0.00 84 1006.2
20260901020507 73 38 1.0 1.0 0.00 0.00 0.00 84 1006.0
20260901020008 73 44 0.0 0.0 0.00 0.00 0.00 84 1006.0
20260901015503 73 352 1.0 1.0 0.00 0.00 0.00 84 1006.1
20260901015002 73 23 1.0 1.0 0.00 0.00 0.00 84 1006.2
20260901014458 73 50 0.0 1.0 0.00 0.00 0.00 84 1006.2
20260901013954 73 137 2.0 2.0 0.00 0.00 0.00 84 1006.3
20260901013450 73 40 2.0 2.0 0.00 0.00 0.00 83 1006.1
20260901012945 74 33 0.0 0.0 0.00 0.00 0.00 83 1006.0
20260901012445 73 39 0.0 0.0 0.00 0.00 0.00 83 1006.1
20260901011940 73 28 0.0 0.0 0.00 0.00 0.00 83 1006.0
20260901011436 74 37 0.0 0.0 0.00 0.00 0.00 83 1006.1
20260901010934 74 4 0.0 1.0 0.00 0.00 0.00 83 1006.2
20260901010429 74 68 1.0 2.0 0.00 0.00 0.00 83 1006.1
20260901005929 74 356 0.0 2.0 0.00 0.00 0.00 83 1006.2
20260901005424 74 30 1.0 1.0 0.00 0.00 0.00 83 1005.9
20260901004919 74 100 0.0 1.0 0.00 0.00 0.00 82 1006.1
20260901004418 74 16 0.0 1.0 0.00 0.00 0.00 82 1006.1
20260901003913 74 37 1.0 2.0 0.00 0.00 0.00 82 1006.3
20260901003408 74 72 0.0 1.0 0.00 0.00 0.00 82 1006.3
20260901002907 74 57 0.0 1.0 0.00 0.00 0.00 82 1006.1
20260901002406 74 49 0.0 2.0 0.00 0.00 0.00 82 1006.4
20260901001901 74 78 1.0 2.0 0.00 0.00 0.00 81 1006.2
20260901001357 74 166 0.0 2.0 0.00 0.00 0.00 81 1006.1
20260901000852 74 50 0.0 1.0 0.00 0.00 0.00 81 1006.2
20260901000347 75 71 1.0 2.0 0.00 0.00 0.00 81 1006.2
20260831235845 75 75 0.0 0.0 0.00 0.00 0.00 81 1006.0
20260831235342 75 136 1.0 2.0 0.00 0.00 0.00 81 1006.0
20260831234836 75 76 0.0 1.0 0.00 0.00 0.00 81 1006.0
20260831234331 74 69 0.0 1.0 0.00 0.00 0.00 81 1006.2
20260831233826 75 19 0.0 1.0 0.00 0.00 0.00 81 1006.2
20260831233321 74 34 1.0 1.0 0.00 0.00 0.00 81 1006.1
20260831232817 75 29 0.0 0.0 0.00 0.00 0.00 81 1006.3
20260831232313 75 11 0.0 1.0 0.00 0.00 0.00 81 1006.2
20260831231809 75 30 0.0 2.0 0.00 0.00 0.00 81 1006.5
20260831231305 75 57 0.0 0.0 0.00 0.00 0.00 81 1006.2
20260831230800 75 89 1.0 1.0 0.00 0.00 0.00 81 1006.3
20260831230255 75 358 1.0 1.0 0.00 0.00 0.00 81 1006.4
20260831225754 75 27 0.0 0.0 0.00 0.00 0.00 80 1006.4
20260831225249 75 19 0.0 0.0 0.00 0.00 0.00 80 1006.2
20260831224739 75 44 0.0 0.0 0.00 0.00 0.00 80 1006.5
20260831224234 75 40 0.0 1.0 0.00 0.00 0.00 80 1006.5
20260831223729 75 88 1.0 2.0 0.00 0.00 0.00 80 1006.4
20260831223225 75 54 0.0 1.0 0.00 0.00 0.00 80 1006.7
20260831222721 75 50 0.0 1.0 0.00 0.00 0.00 80 1006.5
20260831222217 75 59 0.0 2.0 0.00 0.00 0.00 80 1006.6
20260831221712 75 79 0.0 3.0 0.00 0.00 0.00 80 1006.5
20260831221207 75 55 2.0 3.0 0.00 0.00 0.00 80 1006.4
20260831220702 75 109 3.0 3.0 0.00 0.00 0.00 79 1006.3
20260831220157 75 100 1.0 2.0 0.00 0.00 0.00 79 1006.3
20260831215652 75 61 0.0 0.0 0.00 0.00 0.00 79 1006.4
20260831215148 76 42 0.0 0.0 0.00 0.00 0.00 79 1006.5
20260831214645 76 67 0.0 0.0 0.00 0.00 0.00 79 1006.5
20260831214142 76 77 0.0 1.0 0.00 0.00 0.00 79 1006.6
20260831213637 76 62 0.0 1.0 0.00 0.00 0.00 79 1006.4
20260831213132 76 47 0.0 0.0 0.00 0.00 0.00 79 1006.6
20260831212629 76 41 0.0 0.0 0.00 0.00 0.00 78 1006.5
20260831212125 76 29 0.0 1.0 0.00 0.00 0.00 78 1006.5
20260831211623 76 27 0.0 0.0 0.00 0.00 0.00 78 1006.6
20260831211118 76 336 1.0 1.0 0.00 0.00 0.00 78 1006.6
20260831210613 76 47 1.0 2.0 0.00 0.00 0.00 78 1006.8
20260831210109 76 56 0.0 0.0 0.00 0.00 0.00 78 1006.8
20260831205608 77 38 0.0 1.0 0.00 0.00 0.00 77 1006.8
20260831205105 77 24 1.0 1.0 0.00 0.00 0.00 77 1006.5
20260831204559 77 89 2.0 2.0 0.00 0.00 0.00 77 1006.8
20260831204057 77 80 1.0 2.0 0.00 0.00 0.00 77 1006.7
20260831203552 77 42 0.0 1.0 0.00 0.00 0.00 77 1006.8
20260831203051 77 358 1.0 1.0 0.00 0.00 0.00 77 1006.7
20260831202550 77 78 1.0 1.0 0.00 0.00 0.00 77 1006.7
20260831202050 77 76 0.0 1.0 0.00 0.00 0.00 76 1006.8
20260831201549 77 34 0.0 0.0 0.00 0.00 0.00 76 1006.6
20260831201044 78 357 1.0 2.0 0.00 0.00 0.00 76 1006.8
20260831200540 78 74 0.0 1.0 0.00 0.00 0.00 76 1006.7
20260831200035 78 79 0.0 1.0 0.00 0.00 0.00 76 1006.7
20260831195531 78 70 0.0 1.0 0.00 0.00 0.00 76 1006.7
20260831195025 78 75 1.0 2.0 0.00 0.00 0.00 76 1006.7
20260831194521 78 88 1.0 2.0 0.00 0.00 0.00 76 1007.0
20260831194020 78 28 0.0 1.0 0.00 0.00 0.00 76 1006.8
20260831193515 78 65 0.0 0.0 0.00 0.00 0.00 76 1006.8
20260831193005 78 65 0.0 0.0 0.00 0.00 0.00 76 1006.8
20260831192500 78 67 0.0 0.0 0.00 0.00 0.00 76 1006.8
20260831191955 78 66 0.0 0.0 0.00 0.00 0.00 75 1006.7
20260831191451 78 68 0.0 0.0 0.00 0.00 0.00 75 1007.0
20260831190947 78 30 0.0 1.0 0.00 0.00 0.00 75 1006.8
20260831190442 79 67 0.0 0.0 0.00 0.00 0.00 75 1006.8
20260831185941 79 95 0.0 0.0 0.00 0.00 0.00 75 1006.9
20260831185437 79 95 0.0 1.0 0.00 0.00 0.00 75 1007.0
20260831184936 79 33 0.0 0.0 0.00 0.00 0.00 74 1006.8
20260831184431 79 33 0.0 0.0 0.00 0.00 0.00 74 1006.8
20260831183927 79 34 0.0 1.0 0.00 0.00 0.00 74 1007.0
20260831183426 79 30 0.0 1.0 0.00 0.00 0.00 74 1006.8
20260831182926 79 19 1.0 1.0 0.00 0.00 0.00 74 1006.9
20260831182421 79 31 0.0 0.0 0.00 0.00 0.00 74 1007.0
20260831181916 79 26 0.0 0.0 0.00 0.00 0.00 73 1006.8
20260831181411 80 26 0.0 0.0 0.00 0.00 0.00 73 1006.9
20260831180906 80 18 0.0 1.0 0.00 0.00 0.00 73 1006.8
20260831180400 80 341 1.0 1.0 0.00 0.00 0.00 73 1007.0
20260831175859 80 24 0.0 1.0 0.00 0.00 0.00 73 1006.9
20260831175356 80 356 1.0 1.0 0.00 0.00 0.00 72 1007.0
20260831174852 80 7 0.0 1.0 0.00 0.00 0.00 72 1007.0
20260831174347 80 37 0.0 1.0 0.00 0.00 0.00 72 1006.8
20260831173845 80 11 1.0 2.0 0.00 0.00 0.00 72 1007.0
20260831173340 80 359 0.0 1.0 0.00 0.00 0.00 72 1007.0
20260831172835 80 357 2.0 2.0 0.00 0.00 0.00 72 1006.6
20260831172331 80 11 2.0 2.0 0.00 0.00 0.00 72 1007.0
20260831171831 80 34 2.0 2.0 0.00 0.00 0.00 72 1006.8
20260831171327 80 334 1.0 3.0 0.00 0.00 0.00 72 1006.8
20260831170824 81 291 3.0 3.0 0.00 0.00 0.00 71 1006.6
20260831170320 81 336 2.0 3.0 0.00 0.00 0.00 71 1006.8
20260831165816 81 19 2.0 5.0 0.00 0.00 0.00 71 1006.7
20260831165312 81 326 3.0 5.0 0.00 0.00 0.00 70 1006.6
20260831164808 81 341 2.0 5.0 0.00 0.00 0.00 70 1006.6
20260831164304 81 337 5.0 6.0 0.00 0.00 0.00 70 1006.5
20260831163759 81 328 7.0 7.0 0.00 0.00 0.00 70 1006.6
20260831163255 81 283 4.0 7.0 0.00 0.00 0.00 70 1006.4
20260831162753 81 311 6.0 8.0 0.00 0.00 0.00 69 1006.5
20260831162248 81 340 6.0 7.0 0.00 0.00 0.00 69 1006.3
20260831161742 82 335 6.0 9.0 0.00 0.00 0.00 68 1006.4
20260831161239 82 336 5.0 8.0 0.00 0.00 0.00 68 1006.3
20260831160738 82 342 6.0 9.0 0.00 0.00 0.00 67 1006.6
20260831160233 82 335 5.0 6.0 0.00 0.00 0.00 66 1006.3
20260831155733 82 338 4.0 7.0 0.00 0.00 0.00 66 1006.0
20260831155228 82 4 7.0 9.0 0.00 0.00 0.00 66 1006.5
20260831154724 82 287 6.0 9.0 0.00 0.00 0.00 66 1006.4
20260831154220 83 315 6.0 10.0 0.00 0.00 0.00 65 1006.3
20260831153718 83 348 4.0 10.0 0.00 0.00 0.00 64 1006.1
20260831153209 83 320 3.0 9.0 0.00 0.00 0.00 63 1006.2
20260831152704 84 346 10.0 11.0 0.00 0.00 0.00 63 1006.3
20260831152200 84 347 9.0 11.0 0.00 0.00 0.00 63 1006.1
20260831151654 84 258 12.0 15.0 0.00 0.00 0.00 63 1006.2
20260831151148 84 335 4.0 10.0 0.00 0.00 0.00 62 1006.2
20260831150638 84 342 6.0 11.0 0.00 0.00 0.00 61 1006.0
20260831150133 84 348 5.0 8.0 0.00 0.00 0.00 61 1006.2
20260831145627 84 350 4.0 10.0 0.00 0.00 0.00 61 1006.0
20260831145124 84 302 9.0 11.0 0.00 0.00 0.00 62 1005.9
20260831144619 84 341 9.0 10.0 0.00 0.00 0.00 63 1005.8
20260831144115 84 326 5.0 9.0 0.00 0.00 0.00 63 1006.0
20260831143609 85 342 8.0 13.0 0.00 0.00 0.00 63 1005.9
20260831143104 85 275 5.0 7.0 0.00 0.00 0.00 63 1005.7
20260831142601 84 350 9.0 11.0 0.00 0.00 0.00 63 1005.8
20260831142056 85 337 12.0 14.0 0.00 0.00 0.00 63 1006.0
20260831141554 85 280 6.0 13.0 0.00 0.00 0.00 65 1005.9
20260831141050 85 334 10.0 11.0 0.00 0.00 0.00 63 1005.7
20260831140549 85 268 8.0 11.0 0.00 0.00 0.00 63 1005.6
20260831140049 86 340 14.0 17.0 0.00 0.00 0.00 62 1005.7
20260831135547 86 356 3.0 6.0 0.00 0.00 0.00 63 1005.8
20260831135042 85 82 4.0 9.0 0.00 0.00 0.00 64 1005.8
20260831134538 86 246 11.0 17.0 0.00 0.00 0.00 63 1006.0
20260831134033 86 285 9.0 11.0 0.00 0.00 0.00 62 1005.8
20260831133527 85 341 8.0 10.0 0.00 0.00 0.00 64 1005.9
20260831133022 86 80 6.0 14.0 0.00 0.00 0.00 63 1006.0
20260831132519 87 351 7.0 13.0 0.00 0.00 0.00 61 1005.7
20260831132017 87 347 7.0 11.0 0.00 0.00 0.00 60 1005.8
20260831131517 87 342 9.0 16.0 0.00 0.00 0.00 59 1005.8
20260831131014 86 272 6.0 10.0 0.00 0.00 0.00 59 1005.8
20260831130514 86 357 5.0 8.0 0.00 0.00 0.00 60 1005.6
20260831130009 86 340 5.0 11.0 0.00 0.00 0.00 60 1005.8
20260831125503 87 160 12.0 17.0 0.00 0.00 0.00 58 1005.7
20260831124959 87 280 5.0 11.0 0.00 0.00 0.00 59 1005.8
20260831124455 87 344 10.0 15.0 0.00 0.00 0.00 60 1005.7
20260831123950 87 290 14.0 18.0 0.00 0.00 0.00 59 1005.9
20260831123449 88 5 7.0 11.0 0.00 0.00 0.00 59 1005.7
20260831122944 86 305 6.0 10.0 0.00 0.00 0.00 60 1005.7
20260831122439 86 352 11.0 14.0 0.00 0.00 0.00 61 1005.8
20260831121935 86 14 4.0 10.0 0.00 0.00 0.00 62 1005.8
20260831121430 86 1 6.0 10.0 0.00 0.00 0.00 61 1005.7
20260831120925 87 302 7.0 10.0 0.00 0.00 0.00 60 1005.8
20260831120419 87 341 11.0 15.0 0.00 0.00 0.00 59 1005.7
20260831115914 87 346 14.0 18.0 0.00 0.00 0.00 59 1005.9
20260831115410 88 344 6.0 11.0 0.00 0.00 0.00 56 1005.7
20260831114910 87 342 11.0 15.0 0.00 0.00 0.00 55 1006.0
20260831114409 88 279 6.0 14.0 0.00 0.00 0.00 54 1005.9
20260831113905 87 297 7.0 9.0 0.00 0.00 0.00 56 1005.9
20260831113404 87 340 8.0 11.0 0.00 0.00 0.00 57 1005.8
20260831112859 88 354 9.0 16.0 0.00 0.00 0.00 55 1006.0
20260831112354 87 259 5.0 10.0 0.00 0.00 0.00 56 1005.9
20260831111849 88 341 10.0 14.0 0.00 0.00 0.00 55 1005.8
20260831111345 87 265 5.0 11.0 0.00 0.00 0.00 56 1005.7
20260831110841 87 295 6.0 10.0 0.00 0.00 0.00 55 1005.9
20260831110340 87 327 7.0 10.0 0.00 0.00 0.00 55 1006.0
20260831105839 88 345 10.0 14.0 0.00 0.00 0.00 53 1005.7
20260831105335 87 298 7.0 9.0 0.00 0.00 0.00 55 1006.0
20260831104830 87 259 7.0 10.0 0.00 0.00 0.00 55 1005.8
20260831104327 87 317 4.0 6.0 0.00 0.00 0.00 56 1005.9
20260831103826 87 246 5.0 7.0 0.00 0.00 0.00 57 1005.9
20260831103322 87 1 2.0 6.0 0.00 0.00 0.00 57 1006.0
20260831102817 86 309 2.0 7.0 0.00 0.00 0.00 58 1006.1
20260831102312 87 315 9.0 10.0 0.00 0.00 0.00 57 1006.2
20260831101808 87 279 5.0 7.0 0.00 0.00 0.00 57 1006.0
20260831101303 87 248 5.0 11.0 0.00 0.00 0.00 57 1006.1
20260831100759 87 254 11.0 13.0 0.00 0.00 0.00 57 1006.2
20260831100254 87 281 7.0 14.0 0.00 0.00 0.00 57 1006.3
20260831095754 89 262 8.0 11.0 0.00 0.00 0.00 56 1006.2
20260831095248 88 37 6.0 8.0 0.00 0.00 0.00 56 1006.1
20260831094743 88 278 5.0 8.0 0.00 0.00 0.00 56 1006.0
20260831094239 87 348 10.0 14.0 0.00 0.00 0.00 57 1006.1
20260831093735 87 325 9.0 16.0 0.00 0.00 0.00 57 1006.2
20260831093234 86 317 10.0 11.0 0.00 0.00 0.00 58 1006.2
20260831092731 86 262 3.0 6.0 0.00 0.00 0.00 58 1006.2
20260831092227 86 250 6.0 8.0 0.00 0.00 0.00 59 1006.5
20260831091726 86 346 9.0 13.0 0.00 0.00 0.00 58 1006.4
20260831091222 86 354 7.0 10.0 0.00 0.00 0.00 58 1006.3
20260831090717 85 345 4.0 7.0 0.00 0.00 0.00 60 1006.6
20260831090214 85 339 5.0 11.0 0.00 0.00 0.00 61 1006.4
20260831085709 85 341 9.0 11.0 0.00 0.00 0.00 61 1006.5
20260831085204 85 305 7.0 10.0 0.00 0.00 0.00 61 1006.5
20260831084659 86 87 2.0 5.0 0.00 0.00 0.00 60 1006.4
20260831084155 85 255 7.0 8.0 0.00 0.00 0.00 60 1006.5
20260831083651 85 342 4.0 6.0 0.00 0.00 0.00 61 1006.5
20260831083146 85 343 8.0 10.0 0.00 0.00 0.00 61 1006.5
20260831082644 84 0 5.0 8.0 0.00 0.00 0.00 62 1006.6
20260831082140 84 337 7.0 11.0 0.00 0.00 0.00 63 1006.7
20260831081636 86 278 10.0 11.0 0.00 0.00 0.00 62 1006.5
20260831081131 86 327 2.0 8.0 0.00 0.00 0.00 60 1006.6
20260831080627 86 264 3.0 6.0 0.00 0.00 0.00 60 1006.3
20260831080121 85 311 3.0 6.0 0.00 0.00 0.00 60 1006.6
20260831075617 85 270 7.0 10.0 0.00 0.00 0.00 59 1006.7
20260831075113 84 218 5.0 8.0 0.00 0.00 0.00 62 1006.8
20260831074612 84 4 3.0 8.0 0.00 0.00 0.00 62 1006.6
20260831074107 84 251 4.0 6.0 0.00 0.00 0.00 63 1006.6
20260831073602 84 339 5.0 9.0 0.00 0.00 0.00 63 1006.7
20260831073101 84 192 1.0 5.0 0.00 0.00 0.00 67 1006.6
20260831072556 83 337 7.0 9.0 0.00 0.00 0.00 67 1006.7
20260831072054 82 283 6.0 8.0 0.00 0.00 0.00 68 1006.7
20260831071551 82 309 4.0 5.0 0.00 0.00 0.00 70 1006.9
20260831071047 82 291 9.0 10.0 0.00 0.00 0.00 70 1006.7
20260831070546 82 235 4.0 6.0 0.00 0.00 0.00 71 1006.7